Theta_e
312 307 304 307 308 306 304 303 302 306 309 307 306 306 307 310 311 312 313 314 315 316 320 324 328 330 333 335 336 337 337 342 341 334 345 347 344 345 347 348 348 348 347 348
307 303 307 308 306 305 303 301 301 304 307 305 304 303 307 310 310 313 312 313 314 316 318 322 325 326 326 328 334 336 337 339 341 341 336 341 348 347 345 346 346 348 349 348
301 304 307 304 302 301 301 300 300 300 304 305 303 301 303 307 311 312 312 313 314 315 315 318 317 319 322 322 327 333 336 337 339 343 342 337 335 349 346 344 343 346 347 347
302 305 302 302 301 303 298 303 302 301 299 294 302 293 301 305 308 309 309 310 312 313 314 314 313 315 317 319 322 329 334 334 335 341 343 341 334 334 345 345 344 345 347 346
302 303 301 299 301 303 299 303 301 300 299 298 298 296 299 304 303 306 305 307 310 311 311 310 310 311 313 315 318 322 330 332 333 331 335 344 342 337 342 345 343 345 345 346
303 305 304 302 303 303 305 301 299 300 298 291 297 297 298 301 303 304 304 306 307 308 309 309 310 310 310 312 315 319 326 329 329 325 326 331 342 338 341 343 343 342 344 342
299 299 304 303 299 303 301 295 289 288 290 289 297 293 296 301 304 303 303 305 307 308 308 308 308 308 308 309 312 316 322 326 325 321 321 319 323 336 340 341 341 343 341 342
292 291 299 300 297 294 294 294 289 282 286 289 295 289 294 304 306 305 305 306 306 307 308 308 308 307 307 308 309 313 318 323 321 318 317 315 314 317 317 316 317 315 315 314
290 290 298 296 297 297 293 291 297 290 291 287 291 296 301 305 303 303 304 305 305 306 306 306 307 307 307 307 308 314 315 322 318 317 314 311 310 311 312 314 315 314 314 315
293 286 294 294 297 298 295 297 288 291 283 282 288 289 291 298 301 303 303 303 304 305 304 304 305 305 306 307 309 313 314 320 317 315 311 310 308 309 309 308 306 308 309 311
294 291 291 295 293 292 292 291 292 292 289 283 282 287 299 298 299 300 302 304 304 304 302 303 304 305 305 306 307 309 313 316 316 314 312 310 309 309 307 305 305 306 305 305
295 291 286 290 296 297 293 292 293 287 285 289 287 287 299 299 300 301 300 301 302 302 302 303 303 303 304 304 305 307 312 315 316 312 309 307 306 305 304 301 300 300 300 301
294 290 284 288 292 294 292 292 292 291 290 285 282 285 297 297 296 297 298 298 299 300 301 303 302 301 303 303 304 306 311 314 313 307 304 304 302 302 298 297 299 298 297 296
293 290 288 284 287 290 287 289 290 289 284 284 285 286 290 292 293 295 296 298 299 300 301 300 300 301 303 303 304 306 311 313 308 305 301 299 298 297 296 295 295 294 294 292
293 287 290 289 290 289 288 287 288 286 287 283 285 285 289 292 293 295 297 297 298 299 299 299 300 301 303 303 304 305 306 305 304 301 299 298 297 297 297 296 293 292 291 290
294 287 289 286 289 288 286 287 288 287 287 287 287 286 293 294 295 295 295 295 297 297 298 298 299 300 301 302 303 304 303 301 300 299 298 297 295 293 292 292 291 289 287 286
290 288 285 281 287 286 282 287 288 288 289 288 284 289 293 292 293 294 295 295 296 296 297 298 299 300 302 303 303 302 300 299 296 294 294 292 290 289 289 289 288 287 287 287
289 288 286 282 284 276 288 293 291 289 289 291 290 292 293 293 295 295 296 296 295 296 297 298 299 301 303 304 303 301 297 294 292 291 289 289 288 288 288 287 286 285 285 285
292 288 284 279 280 284 287 289 289 287 286 291 290 291 292 294 295 294 298 298 297 297 298 299 300 303 303 302 301 297 293 291 289 288 288 289 288 288 288 286 285 285 284 284
291 291 285 284 277 275 287 292 294 293 283 292 293 292 292 293 287 291 298 298 298 299 299 299 301 303 301 299 296 292 289 288 287 288 287 288 287 286 285 285 285 285 285 284
286 286 283 282 280 284 291 293 294 280 284 292 293 292 291 289 291 295 299 298 299 298 299 300 302 299 297 295 292 288 287 286 287 288 287 287 286 285 285 285 285 284 284 284
285 284 284 285 281 278 294 292 285 290 293 292 292 292 292 293 293 293 295 297 297 297 297 301 299 295 294 292 288 285 285 287 287 286 285 284 285 286 286 285 284 284 284 283
284 288 286 285 285 294 295 293 296 294 291 290 289 290 289 291 293 293 294 296 297 298 299 298 295 289 289 288 287 285 286 286 285 284 283 284 284 284 284 284 283 282 283 282
292 294 288 287 291 292 293 294 294 292 289 289 289 288 287 288 288 293 294 295 296 299 297 293 289 286 285 286 286 285 285 285 284 283 284 284 283 283 282 281 280 279 280 280
290 291 288 289 292 292 292 292 291 289 289 288 288 288 288 289 288 288 294 295 296 293 292 290 286 284 284 285 285 285 285 285 284 284 283 282 282 281 279 278 279 277 277 277
293 291 286 285 291 287 287 290 289 286 284 290 285 287 289 289 289 292 294 295 292 290 287 285 284 284 283 284 284 284 285 285 283 282 282 282 282 282 282 281 279 277 277 276
Wind_Speed
5 10 12 16 16 15 15 18 20 18 18 17 19 21 23 22 20 18 11 12 13 14 14 15 16 17 17 17 16 15 14 14 12 11 10 11 12 12 13 14 18 18 15 18
9 14 10 9 10 14 16 19 20 17 16 18 21 24 24 20 11 16 13 12 10 12 13 13 15 17 17 18 19 18 16 16 13 11 12 11 10 12 12 12 15 16 17 18
12 13 11 10 13 14 14 16 18 21 21 20 23 21 18 14 12 13 10 8 8 9 13 15 17 17 17 18 20 19 19 19 16 16 11 10 13 12 11 11 12 14 18 18
4 7 6 9 12 10 14 15 15 20 20 17 17 23 19 15 15 8 8 7 9 11 12 14 16 18 18 18 19 19 18 20 18 21 17 14 13 16 11 11 11 13 18 19
6 5 8 11 7 10 17 14 18 20 20 22 19 15 16 13 9 10 4 6 8 10 12 14 15 17 19 19 19 19 18 19 20 20 21 17 13 12 11 10 13 15 13 18
6 2 3 10 12 9 14 17 20 21 17 15 18 6 11 10 6 3 1 5 8 10 12 14 16 17 17 18 19 19 20 20 20 19 20 22 23 13 12 10 12 9 3 7
5 3 5 6 12 7 7 16 12 10 9 13 9 13 14 19 9 3 2 3 7 11 13 16 18 19 19 21 20 19 22 21 20 17 17 18 20 22 13 10 10 8 6 5
7 3 3 6 7 10 16 12 8 11 13 18 23 19 21 4 6 7 3 1 6 11 13 17 19 19 21 21 22 21 23 21 19 16 15 15 15 10 9 10 8 7 7 7
7 4 3 3 8 11 7 9 12 12 18 17 16 22 20 11 9 5 4 6 9 12 16 19 20 18 19 21 21 20 23 18 17 16 12 13 14 15 11 11 9 7 8 8
4 9 6 3 10 15 15 12 9 7 14 17 14 26 21 9 5 3 6 9 12 15 18 18 19 20 18 18 19 19 20 16 14 12 10 8 12 13 13 13 14 13 12 10
8 7 4 9 10 12 7 12 13 14 12 15 16 17 11 7 6 11 15 15 18 21 24 19 17 19 19 19 19 20 19 19 10 10 10 8 9 9 14 14 13 11 11 13
6 7 11 19 19 10 5 9 11 10 16 16 18 25 21 30 21 26 27 30 30 28 24 18 16 19 18 18 19 20 19 19 8 7 9 11 12 11 14 14 16 14 16 16
8 4 11 3 7 9 6 4 12 15 16 22 20 21 22 31 32 32 32 31 29 28 25 15 14 16 17 18 19 20 19 19 8 8 8 8 9 12 15 16 16 14 16 17
4 8 11 12 17 17 23 20 20 19 15 20 23 30 29 30 30 30 27 27 24 20 14 12 12 14 17 18 19 20 20 11 8 8 10 9 10 12 12 13 14 14 15 15
6 10 14 16 19 20 23 23 23 22 22 22 28 32 27 26 23 19 19 22 23 17 12 12 14 14 16 17 19 19 15 12 10 8 10 10 9 11 13 15 16 17 16 14
6 9 14 18 18 16 21 20 23 21 21 23 25 28 23 22 22 18 21 19 11 13 18 13 15 16 17 18 19 18 13 9 8 9 10 10 13 13 14 14 14 14 15 14
8 6 8 7 11 20 16 11 10 15 17 20 23 24 23 21 19 17 18 18 14 11 14 16 15 15 16 17 17 15 10 9 11 11 12 13 13 13 12 12 12 12 12 10
9 8 6 11 14 5 5 14 21 23 21 20 24 24 17 22 21 20 21 5 2 11 14 13 13 14 15 16 14 11 9 9 9 11 11 11 11 11 11 12 13 13 13 13
12 8 5 5 9 21 22 4 17 21 25 23 25 25 22 20 18 8 7 9 11 14 16 15 11 13 15 15 13 9 9 9 10 9 9 9 9 10 10 12 12 12 12 11
8 10 9 7 10 9 12 22 21 18 21 17 23 25 24 29 18 12 5 1 14 14 13 15 12 14 14 11 10 10 10 11 10 10 10 11 11 12 13 12 12 10 9 9
8 9 13 11 11 13 18 14 23 12 19 29 30 28 25 19 17 28 31 27 18 16 15 13 12 12 12 9 10 12 10 11 10 10 11 12 14 14 14 12 11 9 11 10
6 6 8 9 9 12 14 32 22 24 23 27 26 27 27 25 24 23 27 26 21 15 11 7 13 13 9 9 10 12 11 10 11 13 15 14 12 9 9 11 11 10 10 11
4 7 9 8 12 26 25 24 25 24 28 30 28 24 22 22 25 22 17 21 19 12 11 13 13 10 9 10 11 11 10 12 13 14 12 11 12 11 13 12 13 9 11 9
9 10 11 13 9 20 23 28 27 26 27 29 29 28 24 20 15 17 13 15 14 10 11 12 13 11 11 11 11 12 11 11 11 11 11 12 13 14 13 10 12 11 10 9
11 13 9 17 20 25 19 25 26 30 29 28 26 25 15 16 11 16 11 10 6 12 11 12 12 11 12 11 12 11 10 10 10 11 11 10 11 13 12 14 11 10 12 12
10 5 7 11 20 15 24 26 28 26 31 22 23 16 11 9 7 12 4 3 11 13 13 13 13 13 13 13 12 11 9 10 10 10 9 8 8 8 7 7 8 14 13 16
Wind_Direction
256 290 274 357 359 336 307 293 293 296 307 306 296 301 296 299 291 285 342 31 22 354 344 358 5 0 353 360 358 350 343 337 328 303 252 237 233 244 233 232 229 221 216 206
252 249 31 351 319 295 290 290 289 305 307 317 300 293 287 285 297 57 33 28 10 355 345 349 360 1 359 358 354 347 345 341 326 309 300 283 245 236 234 233 230 225 215 211
283 306 11 304 291 289 293 296 308 316 311 290 284 289 295 296 84 76 58 27 10 353 352 1 355 0 358 3 351 347 346 341 333 319 304 290 288 241 240 232 232 226 219 214
313 14 328 307 297 316 306 335 319 302 303 301 320 294 292 279 120 97 50 18 357 0 357 0 1 360 360 358 354 344 347 343 340 333 321 298 285 284 243 235 240 229 214 211
75 319 323 296 346 324 299 326 295 288 285 290 288 270 290 293 200 97 37 23 5 3 4 356 1 356 357 356 353 345 344 349 347 341 328 315 292 289 267 255 255 245 221 200
310 275 322 344 305 281 306 298 296 275 263 265 278 278 295 322 29 108 336 23 10 360 0 352 356 353 355 352 347 345 345 350 350 344 336 332 324 288 273 243 251 246 125 168
321 308 71 323 307 270 292 321 307 295 288 283 312 313 293 296 157 185 231 355 355 351 356 348 352 351 348 347 346 344 342 349 352 346 341 342 341 329 288 278 282 252 181 201
323 232 333 32 349 321 302 291 302 306 308 312 310 286 291 94 123 153 189 358 347 344 345 345 348 347 345 342 344 341 337 350 351 349 354 354 352 341 11 23 32 29 42 49
323 253 60 230 309 299 331 274 340 301 283 273 280 276 267 158 159 182 307 331 336 342 348 342 343 344 341 339 341 341 335 355 355 352 6 13 7 2 11 19 29 42 27 43
30 291 314 358 301 255 246 311 300 270 280 288 286 304 295 351 244 103 294 318 316 329 341 341 334 338 339 339 334 337 336 359 358 353 18 23 33 17 14 27 30 38 40 31
316 251 248 249 252 294 299 289 292 281 265 284 293 282 357 9 309 297 286 302 321 320 331 335 335 332 335 340 339 334 338 337 9 357 8 10 40 59 44 30 30 23 50 52
22 307 285 283 282 305 320 288 289 276 288 290 304 278 316 302 336 323 318 318 318 323 326 328 338 330 336 341 342 335 341 336 22 26 15 19 45 48 61 52 41 16 37 47
5 249 304 239 133 173 244 324 308 293 285 275 278 282 297 303 311 312 314 318 317 315 309 324 331 337 340 343 343 345 350 333 36 47 48 43 43 65 62 57 51 44 39 39
298 265 270 285 307 304 294 296 296 288 278 288 278 292 299 302 303 301 308 309 303 310 322 322 337 341 343 346 347 352 356 17 39 61 69 57 50 56 73 70 75 57 50 44
251 272 281 292 299 294 290 291 285 280 279 275 287 287 292 295 317 327 305 304 327 309 336 336 336 344 344 348 353 358 8 10 26 53 72 72 76 70 68 66 64 62 55 45
262 278 301 291 287 295 298 291 288 283 274 270 281 287 299 313 301 315 310 308 325 338 286 334 348 352 346 352 354 1 359 11 42 61 66 65 64 64 64 67 73 71 68 60
279 285 317 282 331 316 292 281 306 299 290 291 288 295 294 292 299 302 290 306 14 302 324 343 341 343 351 2 353 8 7 31 53 58 62 67 71 70 61 60 56 65 66 58
253 268 277 291 311 258 272 317 307 294 285 275 279 286 294 291 297 303 294 50 284 320 334 340 332 351 0 2 4 20 28 39 51 63 65 70 74 74 72 74 68 62 63 51
225 253 266 266 289 289 281 343 341 319 306 304 295 294 292 291 294 313 50 26 336 336 334 324 336 3 16 6 11 27 38 47 50 47 57 59 64 69 67 65 65 62 65 64
217 219 253 262 286 278 315 324 317 318 287 302 342 331 334 332 306 301 200 295 275 308 324 321 355 28 17 2 38 50 55 61 53 50 54 57 57 63 63 65 70 71 75 83
215 231 240 251 255 262 281 342 333 297 309 331 314 305 303 294 290 308 319 316 309 317 323 346 34 46 19 18 62 72 62 60 60 61 60 57 56 57 62 65 65 63 66 68
279 285 282 286 289 278 339 329 320 316 310 306 301 295 291 281 270 279 291 303 311 310 319 20 60 50 33 60 82 81 76 72 67 67 65 64 61 58 65 65 68 65 64 57
262 239 296 291 280 307 306 311 321 325 321 318 312 304 297 311 285 264 289 304 302 310 39 59 64 66 61 77 87 87 78 81 78 74 71 70 70 57 52 50 54 47 52 48
283 314 290 309 282 304 319 317 330 325 317 312 306 302 290 280 301 289 264 280 289 44 61 76 85 85 82 79 77 78 79 78 77 76 72 64 59 61 59 60 53 39 30 38
289 297 276 287 296 331 304 320 324 319 313 309 316 308 286 280 289 292 257 307 6 83 77 83 91 93 87 82 78 75 76 80 80 76 77 76 74 73 70 57 45 60 51 43
235 323 318 302 321 316 304 318 324 324 314 328 340 340 344 317 272 290 239 301 95 89 90 93 94 88 82 75 70 69 74 78 80 78 65 63 67 70 79 87 92 73 71 62